Probability
0 0 0 0 0 0 0 0 0 0 0 0 0 0 0 0 0 0 0 0 0 0 0 0 0 0 0 0 0 0 0 0 0 0 0 0 1 2 3 3 2 1 0 0 0 0 0 0 0
0 0 0 0 0 0 0 0 0 0 0 0 0 0 0 0 0 0 0 0 0 0 0 0 0 0 0 0 0 0 0 0 0 0 0 0 1 3 3 3 2 0 0 0 0 0 0 0 0
0 0 0 0 0 0 0 0 0 0 0 0 0 0 0 0 0 0 0 0 0 0 0 0 0 0 0 0 0 0 0 0 0 0 0 1 2 3 3 3 2 0 0 0 0 0 0 0 0
0 0 0 0 0 0 0 0 0 0 0 0 0 0 0 0 0 0 0 0 0 0 0 0 0 0 0 0 0 0 0 0 0 0 0 1 2 3 3 3 1 0 0 0 0 0 0 0 0
0 0 0 0 0 0 0 0 0 0 0 0 0 0 0 0 0 0 0 0 0 0 0 0 0 0 0 0 1 1 1 0 0 0 0 0 1 2 3 2 1 0 0 0 0 0 0 0 0
0 0 0 0 0 0 0 0 0 0 0 0 0 0 0 0 0 0 1 1 0 0 0 0 0 0 0 0 1 2 1 0 0 0 0 0 1 1 2 1 0 0 0 0 0 0 0 0 1
0 0 0 0 0 0 0 0 0 0 0 0 0 0 0 0 0 0 1 1 0 0 0 0 0 0 0 0 1 1 1 0 0 0 0 1 1 1 1 0 0 0 0 0 0 0 0 0 1
0 0 0 0 0 0 0 0 0 0 0 0 0 0 0 0 0 0 0 0 0 0 0 0 0 0 0 0 1 1 0 0 0 0 0 1 2 1 0 0 0 0 0 0 0 0 0 0 1
0 0 0 0 0 0 0 0 0 0 0 0 0 0 0 0 0 0 0 0 0 0 0 0 0 0 0 0 1 1 0 0 0 0 0 0 1 1 0 0 0 0 0 0 0 0 0 0 0
0 0 0 0 0 0 0 0 0 0 0 0 0 0 0 0 0 0 0 0 0 0 0 0 0 0 0 0 0 0 0 0 0 0 0 0 0 0 0 0 0 0 0 0 0 0 0 0 0
0 0 0 0 0 0 0 0 0 0 0 0 0 0 0 0 0 0 0 0 0 0 0 0 0 0 0 0 0 0 0 0 0 0 0 0 0 0 0 0 0 0 0 0 0 0 0 0 0
0 0 0 0 0 0 0 0 0 0 0 0 0 0 0 0 0 0 0 0 0 0 0 0 0 0 0 0 0 0 0 0 0 0 0 0 0 0 0 0 0 0 0 0 0 0 0 0 0
0 0 0 0 0 0 0 0 0 0 1 1 0 0 0 0 0 1 1 1 0 0 0 0 0 0 0 0 0 0 0 0 0 0 0 0 0 0 0 0 0 0 0 0 0 0 0 0 0
0 0 0 0 0 0 0 0 0 0 1 2 1 0 0 0 0 1 1 1 0 0 0 0 0 0 0 0 0 0 0 0 0 0 0 0 0 0 0 0 0 0 0 0 0 0 0 0 0
0 0 0 0 0 0 0 0 0 0 1 1 1 0 0 0 0 0 0 0 0 0 0 0 0 0 0 0 0 0 0 0 0 0 0 0 0 0 0 0 0 0 0 0 0 0 0 0 0
0 0 0 0 0 0 0 0 0 0 0 0 0 0 0 0 0 0 0 0 0 0 0 0 0 0 0 0 0 0 0 0 0 0 0 0 0 0 0 0 0 0 0 0 0 0 0 0 0
0 0 0 0 0 0 0 0 0 0 0 0 0 0 0 0 0 0 0 0 0 0 1 0 0 0 0 0 0 0 0 0 0 0 0 0 0 0 0 0 0 0 0 0 0 0 0 0 0
0 0 0 0 0 0 0 0 0 0 0 0 0 0 0 0 0 0 0 0 0 0 0 0 0 0 0 0 0 0 0 0 0 0 0 0 0 0 0 0 0 0 0 0 0 0 0 0 0
0 0 0 0 0 0 0 0 0 0 0 0 0 0 0 0 0 0 0 1 1 0 0 0 0 0 0 0 0 0 0 0 0 0 0 0 0 0 0 0 0 0 0 0 0 0 0 0 0
0 0 0 0 0 0 0 0 0 0 0 0 0 0 0 0 0 0 0 1 2 1 1 1 1 0 0 0 0 0 0 0 0 0 0 0 0 0 0 0 0 0 0 0 0 0 0 0 0
0 0 0 0 0 0 0 0 0 0 0 0 0 0 0 0 0 0 0 1 2 1 1 2 1 0 0 0 0 0 0 0 0 0 0 0 0 0 0 0 0 0 0 0 0 0 0 0 0
0 0 0 0 0 0 0 0 0 0 0 0 0 0 1 1 1 0 0 1 1 0 0 1 1 0 0 0 0 0 0 0 0 0 0 0 0 0 0 0 0 0 0 0 0 0 0 0 0
0 0 0 0 0 0 0 0 0 0 0 0 0 0 1 2 1 0 0 0 0 0 0 0 0 0 1 1 0 0 0 0 0 0 0 0 0 0 0 0 0 0 0 0 0 0 0 0 0
0 0 0 0 0 0 0 0 0 0 0 0 0 0 1 2 1 0 0 0 0 0 0 0 0 0 1 2 1 0 0 0 0 0 0 0 0 0 0 0 0 0 0 0 0 0 0 0 0
0 0 0 0 0 0 0 0 0 0 0 0 0 1 1 2 2 1 0 0 0 0 0 0 0 0 1 2 2 1 0 0 0 0 0 0 0 0 0 0 0 0 0 0 0 0 0 0 0
0 0 0 0 0 0 0 0 0 0 0 0 0 1 2 2 2 1 0 0 0 0 0 0 0 0 0 1 2 2 1 0 0 0 0 0 0 0 0 0 0 0 0 0 0 0 0 0 0
0 0 0 0 0 0 0 0 0 0 0 0 0 1 1 1 2 1 0 0 0 0 0 0 0 0 0 1 2 3 2 1 0 0 0 0 0 0 0 0 0 0 0 0 0 0 0 0 0
0 0 0 0 0 0 0 0 0 0 0 0 0 0 0 1 1 1 0 0 0 0 0 0 0 0 0 0 1 2 3 2 1 0 0 0 0 0 0 0 0 0 0 0 0 0 0 0 0
0 0 0 0 0 0 0 0 0 0 0 0 0 0 0 0 1 2 1 1 0 0 0 0 0 0 0 0 0 1 2 3 2 1 0 0 0 0 0 0 0 0 0 0 0 0 0 0 0
0 0 0 0 0 0 0 0 0 0 0 0 0 0 0 0 1 2 2 2 1 0 0 0 0 0 0 0 0 0 1 3 3 2 1 0 0 0 0 0 0 0 0 0 0 0 0 0 0
Wind_Speed
0 1 2 3 5 5 2 2 1 2 4 4 7 8 8 6 4 5 2 6 7 6 4 6 8 8 8 8 9 9 10 10 10 10 10 10 10 10 10 10 10 10 10 10 10 10 10 10 10
1 1 3 4 5 3 1 1 3 3 4 5 7 7 7 6 4 6 3 6 8 6 4 5 8 8 8 9 9 9 9 10 10 10 10 9 10 10 10 10 10 10 10 10 9 9 9 9 9
0 1 3 4 3 2 2 1 3 3 4 4 5 5 5 4 3 3 5 8 8 6 4 6 9 9 9 9 9 9 9 9 9 9 9 9 10 9 9 9 9 9 9 9 9 9 9 9 9
2 4 4 5 3 0 3 3 3 4 4 5 6 6 4 2 3 5 8 9 8 6 4 6 10 10 9 9 9 9 9 9 9 9 9 9 9 9 9 9 9 9 9 9 8 8 9 9 10
3 4 5 3 2 1 1 2 3 5 3 5 7 6 3 3 7 9 9 9 9 5 4 5 9 9 9 9 8 8 9 8 9 9 9 9 9 9 9 9 9 8 8 8 8 8 9 9 10
4 4 4 2 2 1 1 2 6 8 6 6 7 6 2 2 6 7 8 7 7 7 5 4 8 9 9 9 8 8 8 8 9 9 9 9 9 9 8 8 8 8 8 8 7 7 8 9 9
4 4 2 2 2 2 1 1 4 5 4 3 5 6 3 2 5 6 7 7 6 6 5 3 3 5 8 8 8 7 7 8 9 9 9 8 8 7 7 7 7 7 7 7 6 7 7 8 9
4 4 2 1 2 1 0 1 3 4 3 4 5 7 5 5 5 6 6 6 5 5 4 4 3 2 2 3 6 6 6 7 7 7 7 7 6 6 6 5 6 6 6 5 5 5 6 7 8
4 5 2 1 3 1 1 3 3 3 5 4 4 5 6 8 7 6 5 4 4 4 4 4 3 3 2 2 4 4 5 5 5 4 5 4 2 2 2 3 4 5 5 4 4 4 5 6 7
4 3 1 2 3 3 2 4 2 4 6 5 5 5 7 7 7 6 6 5 4 4 4 4 4 4 3 3 2 1 1 1 1 1 2 1 1 1 1 2 3 3 3 3 3 4 5 4 3
3 4 3 2 3 4 3 2 2 5 3 4 8 9 8 6 6 6 5 5 5 5 4 5 5 4 3 2 2 1 1 1 1 1 2 2 1 1 1 1 1 1 2 2 3 3 3 2 2
4 2 3 3 3 3 3 2 3 2 4 5 8 10 8 8 6 6 6 5 4 4 4 5 5 4 3 2 2 1 1 1 1 1 2 2 2 1 1 1 0 0 1 1 1 1 2 2 3
3 2 2 4 4 4 5 3 3 1 3 6 8 7 7 6 6 5 5 5 5 5 4 4 5 4 4 3 2 2 1 1 1 1 1 3 2 2 1 1 1 1 1 1 1 2 3 3 3
3 3 3 3 3 3 5 2 3 2 4 7 7 6 5 6 5 4 4 4 4 5 5 4 4 4 4 3 3 2 1 1 1 1 1 3 2 2 2 2 2 1 1 2 2 3 3 3 3
4 4 3 1 1 2 5 3 1 4 5 7 6 6 5 5 5 5 5 5 5 4 4 4 4 4 4 3 3 3 2 2 1 1 2 2 3 3 3 2 2 2 2 3 3 4 3 4 4
3 3 1 2 1 2 5 1 3 3 6 6 5 4 4 4 4 4 5 5 4 4 4 4 4 4 4 3 3 2 2 2 1 1 1 2 3 3 3 3 2 2 2 3 3 3 3 3 3
2 1 1 1 1 2 4 3 4 2 5 5 4 5 4 3 2 3 4 5 4 5 5 4 4 4 4 3 2 2 2 2 1 1 1 1 3 3 3 3 2 3 3 3 3 3 3 3 2
2 2 2 1 1 2 3 2 3 2 5 5 4 4 4 5 4 4 4 5 4 4 4 4 5 4 4 3 2 2 2 2 2 1 1 2 2 3 3 3 3 3 3 2 2 3 2 2 2
4 3 1 1 1 2 2 2 3 3 4 4 4 4 5 5 3 3 3 4 4 4 5 4 5 3 3 2 2 2 1 1 1 1 2 3 3 3 3 3 3 3 3 2 3 3 3 2 2
4 3 1 1 1 2 1 2 3 3 4 6 6 6 6 4 2 3 3 3 4 4 5 4 4 4 3 2 2 2 2 1 1 1 2 3 3 2 3 3 3 2 3 3 2 3 2 1 1
1 3 3 2 1 2 2 2 2 2 2 2 4 6 6 7 6 5 4 4 4 4 5 5 5 4 3 3 3 3 3 3 2 2 2 2 3 3 3 3 3 3 3 3 2 2 3 2 0
1 3 4 4 3 2 2 1 5 3 2 3 4 4 5 6 5 6 5 4 4 5 5 4 4 4 3 4 4 4 3 2 1 1 1 2 2 3 3 3 3 3 2 2 2 2 2 3 1
4 3 2 3 2 0 1 2 6 2 4 5 5 6 6 6 7 7 6 6 5 4 5 4 4 4 3 4 5 5 3 2 1 1 2 2 2 2 2 3 3 3 2 2 2 2 2 2 2
2 3 3 3 3 1 4 3 5 4 7 6 5 6 6 6 6 6 5 4 3 4 4 4 5 3 3 4 4 5 5 4 3 2 2 1 1 1 1 2 2 2 2 2 2 2 2 2 2
4 5 3 3 2 4 2 3 6 6 6 7 7 7 6 6 6 6 5 4 4 4 4 5 5 4 3 4 4 5 5 5 4 3 3 2 1 1 0 2 2 2 2 2 2 2 2 2 2
1 5 5 3 3 3 1 3 5 3 3 4 5 5 5 5 5 5 5 5 5 5 5 5 5 4 4 4 4 4 5 4 3 3 3 2 2 2 1 2 2 2 2 2 2 2 2 2 2
2 2 4 4 1 0 3 2 3 3 2 3 4 5 5 6 6 6 5 4 4 5 5 6 6 4 4 4 4 4 4 4 3 3 3 2 1 1 2 2 2 2 2 3 3 2 2 2 2
3 4 4 3 2 1 3 2 3 2 3 2 3 5 5 5 5 5 5 5 4 5 4 5 5 5 4 4 4 4 4 4 4 3 3 3 2 2 3 2 2 2 2 3 3 2 2 3 1
1 1 3 3 4 4 2 5 4 7 6 5 4 4 6 6 6 6 5 4 4 4 4 4 4 3 3 4 3 4 4 4 4 3 3 3 2 3 3 2 2 2 3 3 3 2 2 3 2
3 3 5 3 2 3 3 6 3 6 5 5 4 4 4 5 5 5 5 4 3 3 3 3 3 3 3 3 3 3 3 3 4 3 3 3 3 3 3 2 2 3 3 3 3 2 2 2 2
Wind_Direction
13 36 83 60 57 55 49 344 73 54 61 54 66 77 81 63 85 129 186 141 131 128 121 120 115 114 110 106 106 107 103 103 103 103 102 100 97 96 94 93 91 88 85 83 82 80 76 72 70
58 64 62 58 76 76 32 349 77 76 129 122 77 74 77 73 84 109 124 137 131 128 124 118 115 112 109 107 106 107 108 107 107 108 107 105 101 97 96 94 92 89 85 84 82 79 76 72 70
158 70 75 65 81 128 144 175 121 96 97 99 76 54 67 94 104 122 145 141 129 125 125 124 116 111 109 107 105 107 108 110 111 111 110 106 103 100 99 97 94 92 87 85 82 78 76 73 70
72 46 56 69 79 143 156 174 136 100 65 68 93 70 58 59 120 133 137 135 128 127 127 129 121 117 113 109 109 110 111 110 110 113 112 109 105 102 102 100 98 95 92 88 84 80 78 73 71
65 71 59 55 54 40 102 137 100 89 76 80 93 94 68 24 106 124 133 135 132 132 131 131 127 123 119 114 110 109 110 114 113 114 115 112 108 105 103 102 100 98 95 91 85 80 77 72 72
55 67 77 83 81 68 48 85 94 91 102 101 101 106 96 116 119 131 134 135 138 138 135 132 133 129 123 119 114 110 110 116 118 118 117 114 110 109 106 104 103 102 98 93 87 82 78 72 68
97 85 102 126 119 70 60 67 100 115 117 120 120 107 129 154 146 137 134 134 136 137 132 128 130 126 126 126 121 114 112 116 119 118 118 117 116 115 115 111 109 106 102 96 90 83 76 72 67
124 97 79 88 105 76 341 77 100 110 110 118 114 129 163 188 158 129 125 128 132 138 140 143 137 122 118 127 137 133 131 131 129 125 125 125 124 123 122 116 114 109 104 99 92 83 76 72 72
92 79 101 162 141 149 116 82 51 63 86 71 82 132 159 151 132 118 114 116 135 146 156 159 159 156 154 158 157 150 146 143 137 135 142 129 104 101 117 130 127 115 105 96 85 81 70 67 71
84 105 171 174 150 142 112 100 104 79 77 83 84 97 126 134 135 138 142 152 153 161 169 168 172 173 176 177 147 163 165 155 144 148 155 146 143 148 148 151 141 125 100 72 68 66 58 58 63
111 144 145 117 126 119 102 83 75 111 108 156 150 149 145 146 150 150 154 159 165 168 165 167 179 173 169 166 155 159 156 165 180 180 160 143 129 121 109 88 58 52 61 35 39 41 50 63 78
97 113 135 136 117 102 106 100 71 101 167 169 154 150 153 157 165 163 161 164 158 153 157 162 169 168 174 161 154 149 147 162 164 170 150 132 129 122 122 114 115 71 50 54 46 60 68 81 89
92 101 99 114 110 111 99 92 102 112 141 136 137 138 150 157 166 170 161 161 153 154 161 163 160 164 163 149 158 135 140 148 138 112 126 133 135 135 131 119 108 98 81 86 81 78 79 87 90
138 113 89 96 103 106 108 93 98 176 137 130 138 145 151 155 158 148 148 158 165 163 167 165 160 160 151 151 149 143 146 136 108 111 125 131 126 134 133 118 100 86 90 99 94 88 83 82 86
120 95 41 16 133 143 102 47 147 179 138 139 151 151 142 148 148 156 164 166 168 162 158 157 160 148 142 146 150 148 151 138 137 135 120 119 120 130 128 117 101 89 86 88 84 75 73 78 78
69 69 50 291 145 160 110 153 253 183 145 151 158 147 147 164 171 172 161 160 163 150 143 153 148 131 131 128 128 132 133 133 141 129 115 123 122 123 118 114 104 99 91 87 87 78 75 71 70
33 105 154 294 290 130 120 180 243 192 150 160 168 166 162 163 183 180 160 156 159 155 145 143 128 126 125 113 106 104 102 108 112 104 104 116 117 122 120 116 110 107 96 85 97 85 95 93 77
196 177 168 186 285 101 123 192 222 204 154 161 170 173 163 166 191 188 165 162 157 151 140 133 126 129 122 101 80 74 74 74 81 89 108 121 114 114 117 116 108 106 98 84 88 95 83 95 97
154 140 143 224 181 104 137 190 214 201 156 159 165 165 167 181 193 170 153 151 142 135 130 136 132 132 117 99 91 94 88 80 78 84 95 107 110 113 114 117 113 114 113 122 117 105 93 80 91
122 119 94 12 144 110 144 244 240 205 191 176 172 176 181 179 150 149 142 141 147 149 140 143 150 147 139 134 134 129 121 103 93 77 68 85 101 115 122 121 124 123 118 107 102 108 107 95 96
121 161 176 181 38 42 94 336 286 264 216 171 175 176 181 181 172 168 161 155 150 156 160 160 159 156 152 134 105 82 65 50 44 44 39 51 90 101 115 124 123 130 130 137 137 135 138 150 329
209 215 172 167 134 240 154 228 269 247 228 205 189 181 187 182 169 166 165 161 163 171 162 155 154 150 144 131 125 127 124 127 168 146 90 63 85 101 109 117 121 124 123 134 153 149 147 146 170
200 203 164 169 148 24 227 170 271 229 218 225 206 190 187 180 171 171 173 175 175 167 155 153 148 144 141 135 137 133 125 136 129 101 87 68 64 90 105 112 115 119 123 132 135 127 131 142 154
142 62 34 46 77 294 231 175 263 224 211 209 207 195 187 175 169 171 170 159 158 150 142 146 144 146 145 139 137 138 138 135 123 117 109 89 65 58 79 109 108 122 130 127 126 126 128 125 123
73 87 40 6 9 258 230 182 249 239 205 191 190 192 185 171 166 160 151 154 155 149 147 146 146 152 154 145 144 148 147 144 147 151 146 135 108 87 99 103 110 116 133 128 118 113 111 118 119
191 139 156 192 223 283 317 231 265 271 192 168 160 159 160 159 163 165 170 163 159 159 155 151 153 158 154 152 157 153 150 146 151 155 146 155 164 178 160 125 114 112 112 106 108 104 116 115 121
151 176 174 146 180 276 282 285 327 19 94 128 142 145 161 169 168 167 167 163 159 160 163 162 160 160 161 164 159 151 151 148 156 159 142 150 170 162 143 125 117 110 104 105 109 102 109 108 104
158 152 99 116 157 241 281 263 238 225 192 167 165 169 177 173 168 169 171 172 170 164 157 157 161 165 163 158 162 158 161 165 161 150 152 163 172 151 138 131 121 107 99 101 103 102 102 100 101
151 114 120 131 157 158 232 267 226 192 190 181 186 180 177 173 170 172 175 175 165 153 150 149 153 152 157 163 162 158 163 164 155 157 176 175 162 156 151 152 136 125 119 111 106 108 107 106 90
174 174 146 150 220 168 176 261 267 174 173 168 171 177 173 171 167 164 161 150 145 149 149 154 158 160 174 168 154 160 163 152 155 168 180 162 152 155 157 150 141 138 132 130 134 136 122 127 129